Regional Weather Roundup
Issued by NWS

Home | Current Version | Previous Version | Text Only | Print | Product List | Glossary Off
Versions: 1 2 3 4 5 6 7 8 9 10 11 12 13 14 15 16 17 18 19 20 21 22 23 24 25 26 27 28 29 30 31 32 33 34 35 36 37 38 39 40 41 42 43 44 45 46 47 48 49 50

000
ASUS44 KMEG 200500
RWRTN
TENNESSEE HOURLY STATE WEATHER ROUNDUP
NATIONAL WEATHER SERVICE MEMPHIS TN
1200 AM CDT WED SEP 20 2017

TNZ002-004-019-021-049-052-054-088>092-200600-
WEST TENNESSEE

CITY           SKY/WX    TMP DP  RH WIND       PRES   REMARKS
MEMPHIS INTL   CLEAR     80  71  74 S12       29.93S
NWS MEMPHIS      N/A     77 N/A N/A MISG        N/A
JACKSON        CLEAR     74  71  91 S5        29.94S
DYERSBURG      CLEAR     76  71  85 S5        29.93S
$$

TNZ008-025-027-028-033-062-065-066-200600-
NORTH MIDDLE TENNESSEE

CITY           SKY/WX    TMP DP  RH WIND       PRES   REMARKS
NASHVILLE      PTCLDY    69  67  93 S3        29.98S
CLARKSVILLE    CLEAR     68  66  93 SE3       29.95F
SMYRNA           N/A    N/A N/A N/A MISG        N/A
CROSSVILLE     CLEAR     61  60  97 CALM      30.06R
$$

TNZ061-075-076-078-094-096-097-200600-
SOUTH MIDDLE TENNESSEE

CITY           SKY/WX    TMP DP  RH WIND       PRES   REMARKS
TULLAHOMA      CLEAR     66  64  94 CALM      30.02S
WINCHESTER     CLEAR     66  64  94 CALM        N/A
MCMINNVILLE    MOCLDY    64  64 100 CALM      30.01S VSB 3/4
$$

TNZ017-018-042-046-047-200600-
NORTHEAST TENNESSEE

CITY           SKY/WX    TMP DP  RH WIND       PRES   REMARKS
TRI CITIES     PTCLDY    65  63  93 CALM      30.03S
$$

TNZ012-013-036-069-073-074-200600-
CENTRAL EAST TENNESSEE

CITY           SKY/WX    TMP DP  RH WIND       PRES   REMARKS
KNOXVILLE      MOCLDY    66  63  90 CALM      30.01F
OAK RIDGE      MOCLDY    65  64  97 CALM      30.03F
GATLINBURG     PTCLDY    63  61  94 CALM      30.02S
$$

TNZ083-085-099-200600-
SOUTHEAST TENNESSEE

CITY           SKY/WX    TMP DP  RH WIND       PRES   REMARKS
CHATTANOOGA    CLEAR     68  66  93 NE6       30.01R
$$

SKY/WX REPORTED AS FAIR MEANS FEW OR NO CLOUDS BELOW
12 THOUSAND FEET.





USA.gov is the U.S. government's official web portal to all federal, state and local government web resources and services.